星链-37781(STARLINK-37781)

导读

STARLINK-37781(NORAD编号69341)是美国太空探索技术公司(SpaceX)星链低轨互联网星座的组成卫星,推测于2026年5-6月由猎鹰9号火箭发射入轨。该卫星属于星链组网补充批次,运行于约550公里高度的近地轨道,设计用于扩展星链网络的全球覆盖范围,尤其为高纬度及偏远区域提供高速低延迟的天基互联网接入服务。作为星链超万颗在轨卫星的一员,其部署进一步推动了SpaceX实现全球全域网络覆盖的目标,目前卫星状态正常,后续将逐步调整至预定工作轨位投入运营。

Basic Information
目录编号:
69341
目录名称:
STARLINK-37781
国际标识:
2026-122N
轨道中心:
EARTH
卫星名称:
星链-37781
卫星全名:
星链-37781(STARLINK-37781)
卫星状态:
在轨 (已飞行93 天)
发射日期:
2026-06-03 UTC
国别 :
美国 (US)
星等 :
--
Orbit Information
数据来源 国际轨道数据
星历时间: 2026-09-04T08:27:45+0800
9小时前
查看轨道信息
半长轴: 6843.658km
偏心率: 0.000545
轨道倾角: 97.282°
近地点辐角 117.877°
升交点赤经 275.876°
平近点角 242.302°
近地点: 461.791km
远地点: 469.251km
周期: 93.906分钟
每日圈数: 15.334526
Detailed Information
固有亮度:
5
最大亮度:
2.5
卫星平台:
Starlink V1.0
覆盖范围:
全球
运营商:
太空探索技术公司
运营商所在国:
美国
制造商(研发单位):
太空探索技术公司
制造商所在国:
美国
使用方式:
暂无
Satellite Introduction
Starlink 计划是 SpaceX 推出的全球卫星互联网项目,通过发射低轨道卫星,为全球尤其是偏远地区提供高速、低延迟的互联网服务。自 2019 年起,Starlink 已部署数千颗卫星,旨在缩小全球数字鸿沟,推动互联网普及。该项目还为军事、航空等行业提供通信支持,带来广泛经济效益。
2D Orbit Map
3D Orbit Map
Orbit Altitude Analysis Chart
Orbit Inclination Analysis Chart
Orbit Comprehensive Analysis Chart
View Comprehensive Chart
Conjunction Data List
Event ID Objects TCA Miss Dist (km) Collision Risk Probability Collision Risk Index (CRI) Action
CDM_260905-165806-168206-934121
2026-09-05T
16:58:54+0000
1.335 km
极远距离
6.811483E-6 低风险 0.52
CDM_260904-214905-370406-934121
2026-09-04T
21:49:10+0000
2.663 km
极远距离
1.496014E-6 低风险 0.38
CDM_260902-042405-804306-934121
2026-09-02T
04:24:04+0000
2.525 km
极远距离
1.299773E-6 低风险 0.37